Regional Weather Roundup
Issued by NWS Bismarck, ND

Home | Current Version | Previous Version | Text Only | Print | Product List | Glossary On
Versions: 1 2 3 4 5 6 7 8 9 10 11 12 13 14 15 16 17 18 19 20 21 22 23 24 25 26 27 28 29 30 31 32 33 34 35 36 37 38 39 40 41 42 43 44 45 46 47 48 49 50
000
ASUS43 KBIS 251210
RWRBIS

NWR BROADCAST TEXT
NATIONAL WEATHER SERVICE BISMARCK ND
700 AM CDT SAT MAR 25 2017

NOTE: "FAIR" INDICATES FEW OR NO CLOUDS BELOW 12,000 FEET WITH NO
SIGNIFICANT WEATHER AND/OR OBSTRUCTIONS TO VISIBILITY.


CITY           SKY/WX    TMP DP  RH WIND       PRES   REMARKS
WILLISTON      FAIR      43  33  68 S12       29.84S
MINOT          FAIR      32  30  92 SE12      29.96F
MINOT AFB      CLOUDY    32  30  93 SE12      29.95F
BISMARCK       CLOUDY    32  31  96 SE14      30.04S FOG
DICKINSON      FAIR      33  29  85 S20       29.87S
GARRISON         N/A     30  29  96 SE15      29.96F WCI  19
HETTINGER ARPT FAIR      33  29  85 SE10      29.93F
JAMESTOWN      MOCLDY    27  25  92 SE8       30.10F WCI  19
HAZEN          FAIR      30  30 100 SE5       29.99F
LINTON         FOG       28  28 100 SE13G18   30.08F VSB 3/4 WCI  18
MANDAN         FOG       30  30 100 SE15      30.02R VSB<1/4 WCI  19
RUGBY            N/A     28  28 100 SE15      30.03F WCI  17
STANLEY        FAIR      32  32 100 S17       29.91F
TIOGA          FAIR      34  34 100 S14G20    29.88F
WATFORD CITY   FAIR      41  32  70 S12G17    29.86R
$$

CITY           SKY/WX    TMP DP  RH WIND       PRES   REMARKS
GRAND FORKS    FAIR      30  29  96 SE9       30.16S
GRAND FORKS AF FAIR      25  25  99 S5        30.15S WCI  19
DEVILS LAKE    FAIR      27  25  92 SE13      30.08F WCI  16
FARGO          FAIR      30  27  88 SE5       30.18R
CAVALIER         N/A     28  27  93 SE7       30.13F
GRAFTON        FAIR      28  28 100 SE9       30.17F WCI  20
GWINNER        CLOUDY    27  27 100 MISG      30.16R FOG
LANGDON        FAIR      27  27 100 SE12      30.08F WCI  16
ROLLA          CLOUDY    27  27 100 S15G21    30.03F WCI  15
$$

CITY           SKY/WX    TMP DP  RH WIND       PRES   REMARKS
ABERDEEN       CLOUDY    31  27  85 E7        30.13F
MOBRIDGE       CLOUDY    30  27  88 SE10      30.05R FOG
BUFFALO          N/A     36  30  79 S7        29.84R
RAPID CITY     FAIR      35  27  72 S15       29.93F
GLASGOW        FAIR      48  31  51 W10       29.82R
SIDNEY         FAIR      44  34  67 S6        29.83R
WOLF POINT     FAIR      42  35  76 NW6       29.81R
GLENDIVE       MOCLDY    45  35  68 SW6       29.84R
MILES CITY     FAIR      46  33  60 S5        29.85R
BAKER          FAIR      40  31  70 SE9       29.87R
$$

CITY           SKY/WX    TMP DP  RH WIND       PRES   REMARKS
BILLINGS       MOCLDY    48  31  51 N12       29.91R
GREAT FALLS    FAIR      40  25  55 SW14      29.90S
REGINA         MOCLDY    36  32  87 SE21G26   29.72F
ESTEVAN        MOCLDY    36  32  87 SE12G18   29.85S
$$





USA.gov is the U.S. government's official web portal to all federal, state and local government web resources and services.